Time,TemperatureF,DewpointF,PressureIn,WindDirection,WindDirectionDegrees,WindSpeedMPH,WindSpeedGustMPH,Humidity,HourlyPrecipIn,Conditions,Clouds,dailyrainin,SoftwareType,DateUTC
2013-03-05 00:01:00,32.0,31.0,-100.00,NW,315,9.0,14.0,95,0.00,,,-99.99,,2013-03-05 06:01:00,
2013-03-05 00:11:00,32.0,31.0,-100.00,NW,315,9.0,16.0,95,0.00,,,-99.99,,2013-03-05 06:11:00,
2013-03-05 00:22:00,32.0,31.0,-100.00,NW,325,14.0,18.0,95,0.00,,,-99.99,,2013-03-05 06:22:00,
2013-03-05 00:32:00,32.0,31.0,-100.00,NNW,335,13.0,18.0,94,0.00,,,-99.99,,2013-03-05 06:32:00,
2013-03-05 00:41:00,32.0,31.0,-100.00,NNW,335,13.0,18.0,94,0.00,,,-99.99,,2013-03-05 06:41:00,
2013-03-05 00:52:00,32.0,30.0,-100.00,NW,305,15.0,19.0,93,0.79,,,-99.99,,2013-03-05 06:52:00,
2013-03-05 01:01:00,32.0,30.0,-100.00,NW,305,15.0,19.0,93,0.79,,,-99.99,,2013-03-05 07:01:00,
2013-03-05 01:11:00,32.0,30.0,-100.00,NW,305,12.0,21.0,93,0.85,,,-99.99,,2013-03-05 07:11:00,
2013-03-05 01:21:00,31.0,29.0,-100.00,NW,320,11.0,19.0,93,0.85,,,-99.99,,2013-03-05 07:21:00,
2013-03-05 01:31:00,31.0,28.0,-100.00,NNW,330,14.0,30.0,86,0.84,,,-99.99,,2013-03-05 07:31:00,
2013-03-05 01:41:00,31.0,28.0,-100.00,NNW,330,14.0,30.0,86,0.84,,,-99.99,,2013-03-05 07:41:00,
2013-03-05 01:51:00,31.0,26.0,-100.00,NW,325,11.0,20.0,80,0.85,,,-99.99,,2013-03-05 07:51:00,
2013-03-05 02:02:00,31.0,26.0,-100.00,NW,325,11.0,20.0,80,0.85,,,-99.99,,2013-03-05 08:02:00,
2013-03-05 02:11:00,31.0,26.0,-100.00,NW,315,13.0,19.0,79,0.88,,,-99.99,,2013-03-05 08:11:00,
2013-03-05 02:21:00,31.0,26.0,-100.00,NW,315,15.0,20.0,79,0.85,,,-99.99,,2013-03-05 08:21:00,
2013-03-05 02:31:00,30.0,22.0,-100.00,NW,315,19.0,32.0,71,0.00,,,-99.99,,2013-03-05 08:31:00,
2013-03-05 02:41:00,30.0,22.0,-100.00,NW,315,19.0,32.0,71,0.00,,,-99.99,,2013-03-05 08:41:00,
2013-03-05 02:52:00,29.0,20.0,-100.00,NW,315,21.0,29.0,69,0.00,,,-99.99,,2013-03-05 08:52:00,
2013-03-05 03:01:00,29.0,20.0,-100.00,NW,315,21.0,29.0,69,0.00,,,-99.99,,2013-03-05 09:01:00,
2013-03-05 03:11:00,29.0,20.0,-100.00,NW,320,13.0,24.0,69,0.00,,,-99.99,,2013-03-05 09:11:00,
2013-03-05 03:21:00,28.0,20.0,-100.00,NW,315,14.0,27.0,69,0.00,,,-99.99,,2013-03-05 09:21:00,
2013-03-05 03:31:00,28.0,19.0,-100.00,NW,315,14.0,27.0,67,0.00,,,-99.99,,2013-03-05 09:31:00,
2013-03-05 03:42:00,28.0,19.0,-100.00,NW,315,14.0,27.0,67,0.00,,,-99.99,,2013-03-05 09:42:00,
2013-03-05 03:52:00,27.0,18.0,-100.00,NW,310,17.0,25.0,68,0.00,,,-99.99,,2013-03-05 09:52:00,
2013-03-05 04:01:00,27.0,18.0,-100.00,NW,310,17.0,25.0,68,0.00,,,-99.99,,2013-03-05 10:01:00,
2013-03-05 04:11:00,27.0,18.0,-100.00,NW,320,16.0,23.0,69,0.00,,,-99.99,,2013-03-05 10:11:00,
2013-03-05 04:21:00,27.0,18.0,-100.00,NW,310,20.0,26.0,69,0.00,,,-99.99,,2013-03-05 10:21:00,
2013-03-05 04:32:00,26.0,18.0,-100.00,NW,310,17.0,23.0,70,0.00,,,-99.99,,2013-03-05 10:32:00,
2013-03-05 04:42:00,26.0,18.0,-100.00,NW,310,17.0,23.0,70,0.00,,,-99.99,,2013-03-05 10:42:00,
2013-03-05 04:51:00,26.0,18.0,-100.00,NW,305,16.0,24.0,71,0.00,,,-99.99,,2013-03-05 10:51:00,
2013-03-05 05:01:00,26.0,18.0,-100.00,NW,305,16.0,24.0,71,0.00,,,-99.99,,2013-03-05 11:01:00,
2013-03-05 05:11:00,26.0,18.0,-100.00,NW,310,14.0,21.0,73,0.00,,,-99.99,,2013-03-05 11:11:00,
2013-03-05 05:22:00,25.0,18.0,-100.00,NW,310,14.0,21.0,74,0.00,,,-99.99,,2013-03-05 11:22:00,
2013-03-05 05:32:00,25.0,19.0,-100.00,NW,310,17.0,23.0,76,0.00,,,-99.99,,2013-03-05 11:32:00,
2013-03-05 05:42:00,25.0,19.0,-100.00,NW,310,17.0,23.0,76,0.00,,,-99.99,,2013-03-05 11:42:00,
2013-03-05 05:52:00,25.0,19.0,-100.00,NW,305,17.0,23.0,76,0.00,,,-99.99,,2013-03-05 11:52:00,
2013-03-05 06:02:00,25.0,19.0,-100.00,NW,305,17.0,23.0,76,0.00,,,-99.99,,2013-03-05 12:02:00,
2013-03-05 06:11:00,26.0,19.0,-100.00,WNW,300,16.0,23.0,77,0.00,,,-99.99,,2013-03-05 12:11:00,
2013-03-05 06:22:00,25.0,18.0,-100.00,NW,305,20.0,28.0,74,0.00,,,-99.99,,2013-03-05 12:22:00,
2013-03-05 06:32:00,24.0,18.0,-100.00,WNW,300,17.0,23.0,74,0.00,,,-99.99,,2013-03-05 12:32:00,
2013-03-05 06:42:00,24.0,18.0,-100.00,WNW,300,17.0,23.0,74,0.00,,,-99.99,,2013-03-05 12:42:00,
2013-03-05 06:52:00,25.0,18.0,-100.00,NW,310,14.0,21.0,74,0.00,,,-99.99,,2013-03-05 12:52:00,
2013-03-05 07:02:00,25.0,18.0,-100.00,NW,310,14.0,21.0,74,0.00,,,-99.99,,2013-03-05 13:02:00,
2013-03-05 07:11:00,25.0,17.0,-100.00,NW,305,17.0,21.0,72,0.00,,,-99.99,,2013-03-05 13:11:00,
2013-03-05 07:21:00,25.0,17.0,-100.00,WNW,295,17.0,22.0,71,0.00,,,-99.99,,2013-03-05 13:21:00,
2013-03-05 07:32:00,25.0,17.0,-100.00,NW,305,17.0,25.0,73,0.00,,,-99.99,,2013-03-05 13:32:00,
2013-03-05 07:42:00,25.0,17.0,-100.00,NW,305,17.0,25.0,73,0.00,,,-99.99,,2013-03-05 13:42:00,
2013-03-05 07:52:00,25.0,18.0,-100.00,WNW,300,16.0,21.0,73,0.00,,,-99.99,,2013-03-05 13:52:00,
2013-03-05 08:02:00,25.0,18.0,-100.00,WNW,300,16.0,21.0,73,0.00,,,-99.99,,2013-03-05 14:02:00,
2013-03-05 08:11:00,25.0,18.0,-100.00,WNW,300,17.0,23.0,73,0.00,,,-99.99,,2013-03-05 14:11:00,
2013-03-05 08:21:00,25.0,18.0,-100.00,WNW,300,21.0,27.0,74,0.00,,,-99.99,,2013-03-05 14:21:00,
2013-03-05 08:32:00,26.0,19.0,-100.00,WNW,300,17.0,24.0,74,0.00,,,-99.99,,2013-03-05 14:32:00,
2013-03-05 08:42:00,26.0,19.0,-100.00,WNW,300,17.0,24.0,74,0.00,,,-99.99,,2013-03-05 14:42:00,
2013-03-05 08:52:00,26.0,19.0,-100.00,WNW,300,20.0,23.0,75,0.00,,,-99.99,,2013-03-05 14:52:00,
2013-03-05 09:01:00,26.0,19.0,-100.00,WNW,300,20.0,23.0,75,0.00,,,-99.99,,2013-03-05 15:01:00,
2013-03-05 09:11:00,26.0,19.0,-100.00,WNW,295,19.0,26.0,76,0.00,,,-99.99,,2013-03-05 15:11:00,
2013-03-05 09:21:00,26.0,20.0,-100.00,WNW,295,17.0,26.0,76,0.00,,,-99.99,,2013-03-05 15:21:00,
2013-03-05 09:32:00,27.0,21.0,-100.00,WNW,295,18.0,30.0,77,0.00,,,-99.99,,2013-03-05 15:32:00,
2013-03-05 09:42:00,27.0,21.0,-100.00,WNW,295,18.0,30.0,77,0.00,,,-99.99,,2013-03-05 15:42:00,
2013-03-05 09:51:00,27.0,22.0,-100.00,WNW,290,19.0,24.0,80,0.03,,,-99.99,,2013-03-05 15:51:00,
2013-03-05 10:01:00,27.0,22.0,-100.00,WNW,290,19.0,24.0,80,0.03,,,-99.99,,2013-03-05 16:01:00,
2013-03-05 10:11:00,27.0,22.0,-100.00,WNW,290,18.0,24.0,81,0.01,,,-99.99,,2013-03-05 16:11:00,
2013-03-05 10:21:00,27.0,23.0,-100.00,WNW,295,19.0,26.0,81,0.06,,,-99.99,,2013-03-05 16:21:00,
2013-03-05 10:32:00,28.0,24.0,-100.00,WNW,295,22.0,28.0,84,0.08,,,-99.99,,2013-03-05 16:32:00,
2013-03-05 10:42:00,28.0,24.0,-100.00,WNW,295,22.0,28.0,84,0.08,,,-99.99,,2013-03-05 16:42:00,
2013-03-05 10:51:00,28.0,25.0,-100.00,NW,320,16.0,26.0,88,0.00,,,-99.99,,2013-03-05 16:51:00,
2013-03-05 11:01:00,28.0,25.0,-100.00,NW,320,16.0,26.0,88,0.00,,,-99.99,,2013-03-05 17:01:00,
2013-03-05 11:11:00,28.0,25.0,-100.00,NNW,335,22.0,30.0,88,0.00,,,-99.99,,2013-03-05 17:11:00,
2013-03-05 11:21:00,28.0,25.0,-100.00,NW,325,16.0,32.0,87,0.00,,,-99.99,,2013-03-05 17:21:00,
2013-03-05 11:32:00,29.0,25.0,-100.00,NW,320,22.0,32.0,85,0.00,,,-99.99,,2013-03-05 17:32:00,
2013-03-05 11:41:00,29.0,25.0,-100.00,NW,320,22.0,32.0,85,0.00,,,-99.99,,2013-03-05 17:41:00,
2013-03-05 11:52:00,28.0,24.0,-100.00,NW,315,19.0,31.0,85,0.00,,,-99.99,,2013-03-05 17:52:00,
2013-03-05 12:01:00,28.0,24.0,-100.00,NW,315,19.0,31.0,85,0.00,,,-99.99,,2013-03-05 18:01:00,
2013-03-05 12:11:00,28.0,24.0,-100.00,NW,310,15.0,24.0,86,0.00,,,-99.99,,2013-03-05 18:11:00,
2013-03-05 12:21:00,29.0,24.0,-100.00,NW,320,16.0,26.0,84,0.00,,,-99.99,,2013-03-05 18:21:00,
2013-03-05 12:32:00,29.0,24.0,-100.00,NNW,330,18.0,32.0,81,0.00,,,-99.99,,2013-03-05 18:32:00,
2013-03-05 12:42:00,29.0,24.0,-100.00,NNW,330,18.0,32.0,81,0.00,,,-99.99,,2013-03-05 18:42:00,
2013-03-05 12:52:00,29.0,23.0,-100.00,NW,325,20.0,27.0,78,0.00,,,-99.99,,2013-03-05 18:52:00,
2013-03-05 13:01:00,29.0,23.0,-100.00,NW,325,20.0,27.0,78,0.00,,,-99.99,,2013-03-05 19:01:00,
2013-03-05 13:11:00,27.0,23.0,-100.00,NW,310,25.0,35.0,84,0.14,,,-99.99,,2013-03-05 19:11:00,
2013-03-05 13:21:00,27.0,24.0,-100.00,NW,315,23.0,34.0,87,0.04,,,-99.99,,2013-03-05 19:21:00,
2013-03-05 13:32:00,29.0,24.0,-100.00,NW,325,23.0,34.0,84,0.00,,,-99.99,,2013-03-05 19:32:00,
2013-03-05 13:42:00,29.0,24.0,-100.00,NW,325,23.0,34.0,84,0.00,,,-99.99,,2013-03-05 19:42:00,
2013-03-05 13:51:00,29.0,23.0,-100.00,NNW,335,24.0,35.0,79,0.00,,,-99.99,,2013-03-05 19:51:00,
2013-03-05 14:01:00,29.0,23.0,-100.00,NNW,335,24.0,35.0,79,0.00,,,-99.99,,2013-03-05 20:01:00,
2013-03-05 14:11:00,29.0,23.0,-100.00,NNW,335,21.0,38.0,78,0.00,,,-99.99,,2013-03-05 20:11:00,
2013-03-05 14:21:00,29.0,23.0,-100.00,NW,315,18.0,35.0,77,0.00,,,-99.99,,2013-03-05 20:21:00,
2013-03-05 14:32:00,28.0,22.0,-100.00,NW,320,17.0,37.0,76,0.00,,,-99.99,,2013-03-05 20:32:00,
2013-03-05 14:41:00,28.0,22.0,-100.00,NW,320,17.0,37.0,76,0.00,,,-99.99,,2013-03-05 20:41:00,
2013-03-05 14:52:00,28.0,22.0,-100.00,NNW,330,24.0,38.0,77,0.00,,,-99.99,,2013-03-05 20:52:00,
2013-03-05 15:02:00,28.0,22.0,-100.00,NNW,330,24.0,38.0,77,0.00,,,-99.99,,2013-03-05 21:02:00,
2013-03-05 15:11:00,28.0,22.0,-100.00,NNW,335,26.0,34.0,77,0.00,,,-99.99,,2013-03-05 21:11:00,
2013-03-05 15:21:00,28.0,22.0,-100.00,NNW,330,24.0,34.0,77,0.00,,,-99.99,,2013-03-05 21:21:00,
2013-03-05 15:32:00,28.0,22.0,-100.00,NNW,330,24.0,39.0,76,0.00,,,-99.99,,2013-03-05 21:32:00,
2013-03-05 15:41:00,28.0,22.0,-100.00,NNW,330,24.0,39.0,76,0.00,,,-99.99,,2013-03-05 21:41:00,
2013-03-05 15:52:00,28.0,22.0,-100.00,NNW,335,22.0,34.0,76,0.00,,,-99.99,,2013-03-05 21:52:00,
2013-03-05 16:01:00,28.0,22.0,-100.00,NNW,335,22.0,34.0,76,0.00,,,-99.99,,2013-03-05 22:01:00,
2013-03-05 16:11:00,28.0,21.0,-100.00,NW,325,22.0,35.0,75,0.00,,,-99.99,,2013-03-05 22:11:00,
2013-03-05 16:21:00,28.0,21.0,-100.00,NW,325,17.0,30.0,76,0.00,,,-99.99,,2013-03-05 22:21:00,
2013-03-05 16:32:00,28.0,22.0,-100.00,NW,320,16.0,27.0,76,0.00,,,-99.99,,2013-03-05 22:32:00,
2013-03-05 16:41:00,28.0,22.0,-100.00,NW,320,16.0,27.0,76,0.00,,,-99.99,,2013-03-05 22:41:00,
2013-03-05 16:52:00,28.0,22.0,-100.00,NW,325,17.0,29.0,76,0.00,,,-99.99,,2013-03-05 22:52:00,
2013-03-05 17:01:00,28.0,22.0,-100.00,NW,325,17.0,29.0,76,0.00,,,-99.99,,2013-03-05 23:01:00,
2013-03-05 17:11:00,28.0,21.0,-100.00,NW,320,19.0,31.0,76,0.00,,,-99.99,,2013-03-05 23:11:00,
2013-03-05 17:21:00,28.0,21.0,-100.00,NW,320,19.0,29.0,77,0.00,,,-99.99,,2013-03-05 23:21:00,
2013-03-05 17:32:00,27.0,22.0,-100.00,NNW,330,19.0,30.0,79,0.01,,,-99.99,,2013-03-05 23:32:00,
2013-03-05 17:41:00,27.0,22.0,-100.00,NNW,330,19.0,30.0,79,0.01,,,-99.99,,2013-03-05 23:41:00,
2013-03-05 17:52:00,27.0,22.0,-100.00,NW,320,16.0,29.0,81,0.01,,,-99.99,,2013-03-05 23:52:00,
2013-03-05 18:01:00,27.0,22.0,-100.00,NW,320,16.0,29.0,81,0.01,,,-99.99,,2013-03-06 00:01:00,
2013-03-05 18:11:00,27.0,22.0,-100.00,NNW,340,17.0,26.0,81,0.01,,,-99.99,,2013-03-06 00:11:00,
2013-03-05 18:21:00,26.0,22.0,-100.00,NNW,330,21.0,29.0,82,0.03,,,-99.99,,2013-03-06 00:21:00,
2013-03-05 18:32:00,26.0,22.0,-100.00,NNW,335,21.0,30.0,82,0.01,,,-99.99,,2013-03-06 00:32:00,
2013-03-05 18:41:00,26.0,22.0,-100.00,NNW,335,21.0,30.0,82,0.01,,,-99.99,,2013-03-06 00:41:00,
2013-03-05 18:51:00,26.0,21.0,-100.00,NNW,335,21.0,37.0,81,0.01,,,-99.99,,2013-03-06 00:51:00,
2013-03-05 19:01:00,26.0,21.0,-100.00,NNW,335,21.0,37.0,81,0.01,,,-99.99,,2013-03-06 01:01:00,
2013-03-05 19:11:00,25.0,21.0,-100.00,NW,325,20.0,30.0,82,0.00,,,-99.99,,2013-03-06 01:11:00,
2013-03-05 19:21:00,25.0,20.0,-100.00,NNW,335,20.0,31.0,81,0.00,,,-99.99,,2013-03-06 01:21:00,
2013-03-05 19:32:00,25.0,20.0,-100.00,NNW,335,21.0,30.0,81,0.00,,,-99.99,,2013-03-06 01:32:00,
2013-03-05 19:41:00,25.0,20.0,-100.00,NNW,330,21.0,30.0,81,0.00,,,-99.99,,2013-03-06 01:41:00,
2013-03-05 19:51:00,24.0,20.0,-100.00,NNW,330,22.0,29.0,81,0.00,,,-99.99,,2013-03-06 01:51:00,
2013-03-05 20:01:00,24.0,20.0,-100.00,NNW,330,22.0,29.0,81,0.00,,,-99.99,,2013-03-06 02:01:00,
2013-03-05 20:11:00,25.0,20.0,-100.00,NNW,345,20.0,30.0,81,0.00,,,-99.99,,2013-03-06 02:11:00,
2013-03-05 20:21:00,25.0,20.0,-100.00,NNW,335,18.0,26.0,81,0.00,,,-99.99,,2013-03-06 02:21:00,
2013-03-05 20:32:00,25.0,20.0,-100.00,NNW,335,17.0,26.0,81,0.00,,,-99.99,,2013-03-06 02:32:00,
2013-03-05 20:41:00,25.0,20.0,-100.00,NNW,335,17.0,26.0,81,0.00,,,-99.99,,2013-03-06 02:41:00,
2013-03-05 20:52:00,25.0,20.0,-100.00,NNW,330,22.0,31.0,80,0.00,,,-99.99,,2013-03-06 02:52:00,
2013-03-05 21:01:00,25.0,20.0,-100.00,NNW,330,22.0,31.0,80,0.00,,,-99.99,,2013-03-06 03:01:00,
2013-03-05 21:11:00,25.0,19.0,-100.00,NNW,345,22.0,33.0,77,0.00,,,-99.99,,2013-03-06 03:11:00,
2013-03-05 21:21:00,25.0,18.0,-100.00,NNW,330,21.0,34.0,75,0.00,,,-99.99,,2013-03-06 03:21:00,
2013-03-05 21:32:00,24.0,17.0,-100.00,NNW,330,19.0,31.0,74,0.00,,,-99.99,,2013-03-06 03:32:00,
2013-03-05 21:41:00,24.0,17.0,-100.00,NNW,330,19.0,31.0,74,0.00,,,-99.99,,2013-03-06 03:41:00,
2013-03-05 21:52:00,24.0,17.0,-100.00,NNW,330,15.0,26.0,74,0.00,,,-99.99,,2013-03-06 03:52:00,
2013-03-05 22:02:00,24.0,17.0,-100.00,NNW,330,15.0,26.0,74,0.00,,,-99.99,,2013-03-06 04:02:00,
2013-03-05 22:11:00,24.0,17.0,-100.00,NNW,340,19.0,27.0,75,0.00,,,-99.99,,2013-03-06 04:11:00,
2013-03-05 22:21:00,24.0,17.0,-100.00,NNW,335,14.0,25.0,75,0.00,,,-99.99,,2013-03-06 04:21:00,
2013-03-05 22:32:00,24.0,17.0,-100.00,NNW,340,17.0,22.0,77,0.00,,,-99.99,,2013-03-06 04:32:00,
2013-03-05 22:41:00,24.0,17.0,-100.00,NNW,340,17.0,22.0,77,0.00,,,-99.99,,2013-03-06 04:41:00,
2013-03-05 22:51:00,24.0,18.0,-100.00,NNW,335,16.0,22.0,77,0.00,,,-99.99,,2013-03-06 04:51:00,
2013-03-05 23:01:00,24.0,18.0,-100.00,NNW,335,16.0,22.0,77,0.00,,,-99.99,,2013-03-06 05:01:00,
2013-03-05 23:11:00,24.0,18.0,-100.00,NNW,335,16.0,23.0,77,0.00,,,-99.99,,2013-03-06 05:11:00,
2013-03-05 23:22:00,24.0,18.0,-100.00,NNW,335,16.0,22.0,77,0.00,,,-99.99,,2013-03-06 05:22:00,
2013-03-05 23:32:00,24.0,18.0,-100.00,NNW,335,11.0,21.0,77,0.00,,,-99.99,,2013-03-06 05:32:00,
2013-03-05 23:42:00,24.0,18.0,-100.00,NNW,335,11.0,21.0,77,0.00,,,-99.99,,2013-03-06 05:42:00,
2013-03-05 23:52:00,23.0,17.0,-100.00,NNW,335,15.0,21.0,77,0.00,,,-99.99,,2013-03-06 05:52:00,